Creston, IA

6:01 PM CDT on May 24, 2017 (GMT -0500)
Creston Municipal

Weather History for KCSQ - January, 2013

Change the Weather History Date:

Saturday, January 26, 2013

  Actual Average Record
Temperature  
Mean Temperature 26 °F -  
Max Temperature 42 °F 29 °F 71 °F (2002)
Min Temperature 10 °F 11 °F -11 °F (1963)
Degree Days  
Heating Degree Days 39    
Moisture  
Dew Point 8 °F    
Average Humidity 51    
Maximum Humidity 73    
Minimum Humidity 27    
Precipitation  
Precipitation 0.00 in - - ()
Sea Level Pressure  
Sea Level Pressure 30.21 in    
Wind  
Wind Speed 10 mph (ESE)    
Max Wind Speed 16 mph    
Max Gust Speed 20 mph    
Visibility 10 miles    
Events      
Averages and records for this station are not official NWS values.
T = Trace of Precipitation, MM = Missing Value Source: NWS Daily Summary

Daily Weather History Graph

Daily Weather History Graph

Search for Another Location

Airport or City:

Trip Planner

Search our weather history database for the weather conditions in past years. The results will help you decide how hot, cold, wet, or windy it might be!

Date:

Astronomy

Jan. 26, 2013 Rise Set
Actual Time 7:33 AM CST 5:27 PM CST
Civil Twilight 7:03 AM CST 5:56 PM CST
Nautical Twilight 6:30 AM CST 6:30 PM CST
Astronomical Twilight 5:57 AM CST 7:02 PM CST
Moon 5:23 PM CST (1/26) 6:51 AM CST (1/26)
Length of Visible Light 10h 53m
Length of Day
9h 54m
Full, 100% of the Moon is Illuminated
Jan 26
Full
Jan 26
Full
Feb 3
Last Quarter
Feb 10
New
Feb 17
First Quarter

Hourly Weather History & Observations

Time (CST) Temp. Windchill Dew Point Humidity Pressure Visibility Wind Dir Wind Speed Gust Speed Precip Events Conditions
12:15 AM 17.6 °F 6.4 °F 10.4 °F 73% 30.26 in 10.0 mi NE 9.2 mph - N/A   Clear
12:35 AM 17.6 °F 5.0 °F 8.6 °F 68% 30.26 in 10.0 mi NE 11.5 mph - N/A   Clear
12:55 AM 15.8 °F 2.1 °F 6.8 °F 68% 30.25 in 10.0 mi NNE 12.7 mph - N/A   Clear
1:15 AM 15.8 °F 3.4 °F 6.8 °F 68% 30.25 in 10.0 mi NE 10.4 mph - N/A   Clear
1:35 AM 15.8 °F 5.1 °F 6.8 °F 68% 30.25 in 10.0 mi NE 8.1 mph - N/A   Clear
1:55 AM 14.0 °F 3.9 °F 6.8 °F 73% 30.26 in 10.0 mi ENE 6.9 mph - N/A   Clear
2:15 AM 14.0 °F 5.1 °F 6.8 °F 73% 30.26 in 10.0 mi ENE 5.8 mph - N/A   Clear
2:35 AM 14.0 °F 3.9 °F 5.0 °F 67% 30.26 in 10.0 mi NE 6.9 mph - N/A   Clear
2:55 AM 12.2 °F 2.9 °F 3.2 °F 67% 30.26 in 10.0 mi NE 5.8 mph - N/A   Clear
3:15 AM 12.2 °F - 3.2 °F 67% 30.26 in 10.0 mi Calm Calm - N/A   Clear
3:35 AM 12.2 °F 1.7 °F 3.2 °F 67% 30.26 in 10.0 mi NE 6.9 mph - N/A   Clear
3:55 AM 12.2 °F - 3.2 °F 67% 30.26 in 10.0 mi Calm Calm - N/A   Clear
4:15 AM 12.2 °F 0.7 °F 3.2 °F 67% 30.25 in 10.0 mi ENE 8.1 mph - N/A   Clear
4:35 AM 12.2 °F 4.3 °F 3.2 °F 67% 30.24 in 10.0 mi East 4.6 mph - N/A   Clear
4:55 AM 12.2 °F 1.7 °F 3.2 °F 67% 30.25 in 10.0 mi East 6.9 mph - N/A   Clear
5:15 AM 10.4 °F -0.4 °F 3.2 °F 73% 30.26 in 10.0 mi ENE 6.9 mph - N/A   Clear
5:35 AM 10.4 °F -1.5 °F 3.2 °F 73% 30.25 in 10.0 mi ENE 8.1 mph - N/A   Clear
5:55 AM 10.4 °F -0.4 °F 3.2 °F 73% 30.27 in 10.0 mi ENE 6.9 mph - N/A   Clear
6:15 AM 10.4 °F -0.4 °F 1.4 °F 67% 30.27 in 10.0 mi East 6.9 mph - N/A   Clear
6:35 AM 10.4 °F -0.4 °F 1.4 °F 67% 30.28 in 10.0 mi East 6.9 mph - N/A   Clear
6:55 AM 10.4 °F -1.5 °F 1.4 °F 67% 30.28 in 10.0 mi East 8.1 mph - N/A   Clear
7:15 AM 10.4 °F -1.5 °F 1.4 °F 67% 30.28 in 10.0 mi East 8.1 mph - N/A   Clear
7:35 AM 10.4 °F -1.5 °F 1.4 °F 67% 30.28 in 10.0 mi East 8.1 mph - N/A   Clear
7:55 AM 10.4 °F -2.4 °F 3.2 °F 73% 30.28 in 10.0 mi East 9.2 mph - N/A   Clear
8:15 AM 10.4 °F -4.8 °F 1.4 °F 67% 30.29 in 10.0 mi East 12.7 mph - N/A   Clear
8:35 AM 12.2 °F -2.5 °F 3.2 °F 67% 30.29 in 10.0 mi East 12.7 mph - N/A   Clear
8:55 AM 14.0 °F -0.8 °F 3.2 °F 62% 30.28 in 10.0 mi East 13.8 mph - N/A   Clear
9:15 AM 15.8 °F 1.4 °F 3.2 °F 58% 30.29 in 10.0 mi ESE 13.8 mph - N/A   Clear
9:35 AM 17.6 °F 4.3 °F 3.2 °F 53% 30.29 in 10.0 mi ESE 12.7 mph - N/A   Clear
9:55 AM 17.6 °F 5.0 °F 3.2 °F 53% 30.29 in 10.0 mi ESE 11.5 mph - N/A   Clear
10:15 AM 19.4 °F 7.2 °F 3.2 °F 49% 30.29 in 10.0 mi ESE 11.5 mph - N/A   Clear
10:35 AM 21.2 °F 8.9 °F 5.0 °F 50% 30.29 in 10.0 mi ESE 12.7 mph - N/A   Clear
10:55 AM 24.8 °F 14.0 °F 5.0 °F 43% 30.28 in 10.0 mi SE 11.5 mph - N/A   Clear
11:15 AM 26.6 °F 14.3 °F 5.0 °F 40% 30.28 in 10.0 mi SE 16.1 mph - N/A   Clear
11:35 AM 26.6 °F 15.2 °F 5.0 °F 40% 30.27 in 10.0 mi SE 13.8 mph - N/A   Clear
11:55 AM 28.4 °F 17.5 °F 5.0 °F 37% 30.26 in 10.0 mi SE 13.8 mph - N/A   Clear
12:15 PM 32.0 °F 22.5 °F 5.0 °F 32% 30.25 in 10.0 mi SSE 12.7 mph - N/A   Clear
12:35 PM 33.8 °F 24.3 °F 6.8 °F 32% 30.23 in 10.0 mi SE 13.8 mph 18.4 mph N/A   Clear
12:55 PM 35.6 °F 27.1 °F 8.6 °F 33% 30.22 in 10.0 mi SE 12.7 mph - N/A   Clear
1:15 PM 35.6 °F 26.6 °F 8.6 °F 33% 30.21 in 10.0 mi SSE 13.8 mph - N/A   Scattered Clouds
1:35 PM 35.6 °F 27.1 °F 8.6 °F 33% 30.20 in 10.0 mi SSE 12.7 mph - N/A   Scattered Clouds
1:55 PM 37.4 °F 29.8 °F 8.6 °F 30% 30.19 in 10.0 mi SE 11.5 mph - N/A   Scattered Clouds
2:15 PM 39.2 °F 31.2 °F 10.4 °F 31% 30.18 in 10.0 mi SSE 13.8 mph - N/A   Clear
2:35 PM 39.2 °F 31.6 °F 8.6 °F 28% 30.17 in 10.0 mi SSE 12.7 mph - N/A   Clear
2:55 PM 39.2 °F 30.8 °F 10.4 °F 31% 30.17 in 10.0 mi SSE 15.0 mph - N/A   Clear
3:15 PM 39.2 °F 32.5 °F 10.4 °F 31% 30.17 in 10.0 mi SE 10.4 mph - N/A   Clear
3:35 PM 41.0 °F 34.7 °F 10.4 °F 29% 30.16 in 10.0 mi SE 10.4 mph - N/A   Clear
3:55 PM 41.0 °F 33.9 °F 10.4 °F 29% 30.16 in 10.0 mi SSE 12.7 mph - N/A   Clear
4:15 PM 42.8 °F 36.6 °F 10.4 °F 27% 30.15 in 10.0 mi SSE 11.5 mph - N/A   Clear
4:35 PM 41.0 °F 33.9 °F 10.4 °F 29% 30.14 in 10.0 mi SE 12.7 mph - N/A   Clear
4:55 PM 39.2 °F 32.5 °F 12.2 °F 33% 30.14 in 10.0 mi SE 10.4 mph - N/A   Clear
5:15 PM 37.4 °F 30.3 °F 14.0 °F 38% 30.14 in 10.0 mi SE 10.4 mph - N/A   Clear
5:35 PM 35.6 °F 28.0 °F 14.0 °F 41% 30.14 in 10.0 mi SE 10.4 mph - N/A   Clear
5:55 PM 35.6 °F 27.1 °F 14.0 °F 41% 30.13 in 10.0 mi SE 12.7 mph - N/A   Clear
6:15 PM 33.8 °F 25.8 °F 14.0 °F 44% 30.13 in 10.0 mi SE 10.4 mph - N/A   Clear
6:35 PM 33.8 °F 24.8 °F 14.0 °F 44% 30.13 in 10.0 mi SE 12.7 mph - N/A   Clear
6:55 PM 33.8 °F 25.3 °F 14.0 °F 44% 30.13 in 10.0 mi SE 11.5 mph - N/A   Clear
7:15 PM 33.8 °F 24.8 °F 12.2 °F 41% 30.13 in 10.0 mi SE 12.7 mph - N/A   Clear
7:35 PM 32.0 °F 22.5 °F 14.0 °F 48% 30.13 in 10.0 mi SSE 12.7 mph - N/A   Clear
7:55 PM 32.0 °F 22.1 °F 12.2 °F 44% 30.12 in 10.0 mi SSE 13.8 mph - N/A   Clear
8:15 PM 33.8 °F 23.5 °F 12.2 °F 41% 30.12 in 10.0 mi SSE 16.1 mph - N/A   Clear
8:35 PM 32.0 °F 22.1 °F 12.2 °F 44% 30.12 in 10.0 mi SSE 13.8 mph - N/A   Clear
8:55 PM 32.0 °F 22.1 °F 12.2 °F 44% 30.13 in 10.0 mi SSE 13.8 mph - N/A   Clear
9:15 PM 32.0 °F 21.2 °F 12.2 °F 44% 30.13 in 10.0 mi SSE 16.1 mph - N/A   Clear
9:35 PM 32.0 °F 22.1 °F 12.2 °F 44% 30.13 in 10.0 mi SE 13.8 mph - N/A   Clear
9:55 PM 30.2 °F 19.8 °F 12.2 °F 47% 30.12 in 10.0 mi SSE 13.8 mph - N/A   Clear
10:15 PM 30.2 °F 19.8 °F 12.2 °F 47% 30.12 in 10.0 mi SSE 13.8 mph - N/A   Clear
10:35 PM 30.2 °F 19.3 °F 12.2 °F 47% 30.11 in 10.0 mi SE 15.0 mph 19.6 mph N/A   Clear
10:55 PM 30.2 °F 20.2 °F 12.2 °F 47% 30.11 in 10.0 mi SE 12.7 mph - N/A   Clear
11:15 PM 30.2 °F 20.8 °F 14.0 °F 51% 30.10 in 10.0 mi SE 11.5 mph - N/A   Clear
11:35 PM 30.2 °F 20.8 °F 14.0 °F 51% 30.10 in 10.0 mi SE 11.5 mph - N/A   Clear
11:55 PM 30.2 °F 20.8 °F 14.0 °F 51% 30.10 in 10.0 mi SE 11.5 mph - N/A   Scattered Clouds